Weather Roundup
Issued by NWS Springfield, MO

Home | Current Version | Previous Version | Text Only | Print | Product List | Glossary On
Versions: 1 2 3 4 5 6 7 8 9 10 11 12 13 14 15 16 17 18 19 20 21 22 23 24 25 26 27 28 29 30 31 32 33 34 35 36 37 38 39 40 41 42 43 44 45 46 47 48 49 50
000
NZUS99 KSGF 281207
HRRSGF

HOURLY WEATHER
NATIONAL WEATHER SERVICE SPRINGFIELD MO
700 AM CDT THU AUG 28 2014

......SGF CWA......

CITY           SKY/WX    TMP DP  RH WIND       PRES   REMARKS
SPRINGFIELD    CLEAR     73  68  84 SE7       30.03R
6HR MIN TEMP:  73; 6HR MAX TEMP:  75;

JOPLIN         CLEAR     73  69  87 S9        30.01R
6HR MIN TEMP:  73; 6HR MAX TEMP:  77;

WEST PLAINS    CLEAR     67  64  90 CALM      30.07S
6HR MIN TEMP:  66; 6HR MAX TEMP:  72;

ROLLA          CLEAR     70  67  90 MISG      30.04R
6HR MIN TEMP:  69; 6HR MAX TEMP:  73;

OSAGE BEACH    CLEAR     70  66  88 CALM      30.03R
BRANSON        PTCLDY    72  66  83 S5        30.06R

......SURROUNDING SGF CWA......

CITY           SKY/WX    TMP DP  RH WIND       PRES   REMARKS
CHANUTE        CLEAR     71  67  87 S7        29.99R
PARSONS        CLEAR     73  68  84 S3        29.99S
COFFEYVILLE    CLEAR     72  69  90 S6        29.98R
EMPORIA        CLOUDY    73  68  84 S9        29.97R
GROVE OK       CLEAR     72  72 100 CALM      30.02R FOG
ROGERS AR      PTCLDY    71  67  87 SE5       30.05S
SILOAM SPRINGS PTCLDY    70  63  78 SE3       30.04S
HARRISON AR    CLEAR     68  67  96 E5        30.06R FOG
NEAR YELLVILLE CLEAR     68  63  83 CALM      30.04R

......KANSAS AND MISSOURI......

CITY           SKY/WX    TMP DP  RH WIND       PRES   REMARKS
KANSAS CTY INT CLOUDY    74  72  93 SE6       29.97S
DOWNTOWN KC    CLOUDY    77  72  84 S6        29.96S
COLUMBIA       CLEAR     69  68  96 SE6       30.03R
SEDALIA        PTCLDY    70  67  90 S7        30.01S FOG
ST JOSEPH      CLOUDY    73  71  93 SE7       29.96S
ST LOUIS       PTCLDY    73  70  90 E5        30.06R
SPIRIT OF STL  PTCLDY    70  69  97 CALM      30.04R FOG
KIRKSVILLE     CLOUDY    71  69  93 E6        30.04R FOG
WICHITA        CLOUDY    77  65  66 S8        29.96S
TOPEKA         CLOUDY    78  70  76 S6        29.95R
OLATHE         CLOUDY    73  71  93 SE7       29.97S

......TENNESSEE......

CITY           SKY/WX    TMP DP  RH WIND       PRES   REMARKS
MEMPHIS        PTCLDY    73  65  75 CALM      30.03R
NASHVILLE      PTCLDY    73  70  90 CALM      30.06R

......ARKANSAS.......

CITY           SKY/WX    TMP DP  RH WIND       PRES   REMARKS
FAYETTEVILLE   CLEAR     65  65 100 CALM      30.04S FOG
FT SMITH       CLEAR     73  71  93 E5        30.00R FOG
LITTLE ROCK    PTCLDY    73  69  87 CALM      30.02R

......OKLAHOMA.......

CITY           SKY/WX    TMP DP  RH WIND       PRES   REMARKS
TULSA          PTCLDY    76  67  73 S12       29.97R
PONCA CITY     CLEAR     76  65  68 S7        29.96S
MCALESTER      CLEAR     71  67  87 CALM      29.99S
OKLAHOMA CITY  PTCLDY    69  64  84 S6        29.97F

......IOWA............

CITY           SKY/WX    TMP DP  RH WIND       PRES   REMARKS
DES MOINES     TSTM      69  65  86 SE3       30.03F FOG
QUAD CITIES    MOCLDY    66  61  84 E8        30.09R

......ILLINOIS........

CITY           SKY/WX    TMP DP  RH WIND       PRES   REMARKS
QUINCY         FOG       72  71  97 E6        30.05R VSB 1/4
CHICAGO        MOCLDY    67  55  65 E9        30.14R



USA.gov is the U.S. government's official web portal to all federal, state and local government web resources and services.